Wilmington, OH NWS (KILN) Doppler Radar Loop using GRLevel3 Software
Last 10 volume scans
NOTICE: The most recent KILN radar volume scan is more than 30 minutes old.
Wilmington, OH Radar using GRLevel3

  ILN Radar Status: 
                    FTMILN
                    MESSAGE DATE:  OCT 17 2017 21:34:14
                    THE DOPPLER RADAR AT WILMINGTON, OHIO WILL BE DOWN UNTIL FURTHER NOTICE. PARTS H
                    AVE BEEN ORDERED. THANK YOU FOR YOUR PATIENCE DURING THIS OUTAGE.
                    
                    

Wilmington, OH NWS Radar Loop
Wilmington OH Radar Loop

Regional Radar Loop
Regional Radar Loop

Eastern US Sector IR Image
Eastern US Sector IR Image

Latest image from the National Oceanic and Atmospheric Administration (NOAA) Geostationary Satellite Server.


SPC Day 1 Categorical Outlook
SPC Day 1 Categorical Outlook

Category Criteria
Thunderstorms - 10% or greater probability of non-severe or near severe thunderstorms.
1: Marginal - 2% tornado probability, or
- 5% severe hail or severe wind probability.
2: Slight - 5% tornado probability, or
- 15% severe hail or severe wind probability WITH OR WITHOUT 10% or greater probability of hail 2 inches or greater in diameter, or wind gusts 75 mph or greater.
3: Enhanced - 10% tornado probability WITH OR WITHOUT 10% or greater probability of an EF2+ tornado, or
- 15% tornado probability, or
- 30% severe hail or severe wind probability WITH OR WITHOUT 10% or greater probability of hail 2 inches or greater in diameter, or wind gusts 75 mph or greater, or
- 45% probability of severe hail or wind.
4: Moderate - 15% tornado probability AND 10% or greater probability of an EF2+ tornado, or
- 30% tornado probability, or
- 45% severe wind probability AND 10% or greater probability of a wind gusts 75 mph or greater, or
- 45% severe hail probability AND 10% or greater probability of hail 2 inches or greater in diameter, or
- 60% severe wind probability, or
- 60% severe hail probability WITH OR WITHOUT 10% or greater probability of hail 2 inches or greater in diameter.
5: High - 30% tornado probability AND 10% or greater probability of an EF2+ tornado, or
- 45% or greater tornado probability WITH OR WITHOUT 10% or greater probability of an EF2+ tornado, or
- 60% severe wind probability AND a 10% or greater probability of a wind gust 75 mph or greater.

NOAA Day 1 National Forecast Map
NOAA Day 1 National Forcast Map

Day 1 Precipitation Forecast
Day 1 Precipitation Forecast


SPC Day 2 Categorical Outlook
SPC Day 2 Categorical Outlook

NOAA Day 2 National Forecast Map
NOAA Day 2 National Forcast Map

Day 2 Precipitation Forecast
Day 2 Precipitation Forecast


SPC Day 3 Categorical Outlook
SPC Day 3 Categorical Outlook

NOAA Day 3 National Forecast Map
NOAA Day 3 National Forcast Map

Day 3 Precipitation Forecast
Day 3 Precipitation Forecast


National Weather Service Regional Observations

Station State Time Temperature Dew Point RH Wind Heat Index Wind Chill Pressure Visibility Weather
Charleston West Virginia 10/18/2017 2:54:00 AM 39.0 37.9 96 Calm N/A N/A 30.32 10.0 --
Chicago O'hare Illinois 10/18/2017 2:51:00 AM 54.0 39.9 59 SSW (210) at 10 N/A N/A 30.14 10.0 --
Cleveland Ohio 10/18/2017 2:51:00 AM 50.0 39.0 66 SSE (150) at 5 N/A N/A 30.28 10.0 --
Columbus Ohio 10/18/2017 2:51:00 AM 44.1 43.0 96 Calm N/A N/A 30.29 10.0 --
Covington Kentucky 10/18/2017 2:52:00 AM 46.0 41.0 82 S (190) at 6 N/A 43.2 30.27 10.0 --
Dayton Ohio 10/18/2017 2:56:00 AM 46.9 42.1 83 SSE (160) at 7 N/A 43.5 30.29 10.0 --
Dothan Alabama 10/18/2017 2:53:00 AM 50.0 45.0 83 ENE (60) at 3 N/A N/A 30.25 10.0 --
Evansville Indiana 10/18/2017 2:54:00 AM 45.0 42.1 90 Calm N/A N/A 30.25 10.0 --
Fort Wayne Indiana 10/18/2017 2:54:00 AM 43.0 37.0 79 S (190) at 6 N/A 39.4 30.24 10.0 --
Frankfort Kentucky 10/18/2017 2:53:00 AM 42.1 37.9 85 Calm N/A N/A 30.27 10.0 --
Huntsville Alabama 10/18/2017 2:53:00 AM 48.0 48.0 100 ESE (110) at 3 N/A 46.9 30.26 10.0 --
Indianapolis Indiana 10/18/2017 2:54:00 AM 46.0 39.9 79 Calm N/A N/A 30.24 10.0 --
Knoxville Tennessee 10/18/2017 2:53:00 AM 45.0 45.0 100 WSW (250) at 3 N/A 43.5 30.29 10.0 --
Lexington Kentucky 10/18/2017 2:54:00 AM 44.1 39.0 82 SE (140) at 6 N/A 40.8 30.28 10.0 --
Louisville Kentucky 10/18/2017 2:56:00 AM 48.9 45.0 86 SE (140) at 3 N/A 48.0 30.27 10.0 --
Nashville Tennessee 10/18/2017 2:53:00 AM 46.0 44.1 93 S (170) at 3 N/A 44.8 30.27 10.0 --
Noctor/Jackson Kentucky 10/18/2017 2:53:00 AM 46.0 41.0 82 Calm N/A N/A 30.29 10.0 --
Paducah Kentucky 10/18/2017 2:53:00 AM 44.1 39.9 85 Calm N/A N/A 30.23 10.0 --
Pittsburgh Pennsylvania 10/18/2017 2:51:00 AM 48.0 39.0 71 Calm N/A N/A 30.30 10.0 --
St. Louis Missouri 10/18/2017 2:51:00 AM 54.0 41.0 61 S (180) at 6 N/A N/A 30.19 10.0 --
Wilmington Ohio 10/18/2017 2:54:00 AM 43.0 39.9 89 Calm N/A N/A 30.29 10.0 --

These are regional hourly observations made by the National Weather Service. The observations are usually made between 50 and 59 minutes past the hour and are usually available by 15 minutes past the next hour.


This page will reload automatically every 10 minutes.

36,188 Page Views